Address 0xd3062f68148b0b8c7ec2c940330887ae546f9b7e 2

 
Txn Hash Method
Block
From
To
Value [Txn Fee]
0x9241b7638b5e80a772e582a5527dee473841bb55fd498144d1649e2a41e45667Create Or Update...195068662022-08-06 3:44:202 days 12 hrs ago0xd3062f68148b0b8c7ec2c940330887ae546f9b7eOUT 0x09986b4e255b3c548041a30a2ee312fe176731c20 ETH0.000099387496 ETH
0x3815d714a0735e0f6747e38e2378723b4706f63fc5523552868632cb74d83623Set Approval For...195068562022-08-06 3:43:082 days 12 hrs ago0xd3062f68148b0b8c7ec2c940330887ae546f9b7eOUT 0xc5295c6a183f29b7c962df076819d44e0076860e0 ETH0.000076893159 ETH
0x0a9e8f70216ccb7db601b6f9b2ea3400a5f1278f9c61e558e607178e35d005a90xa07076b2195068352022-08-06 3:43:082 days 12 hrs ago0xd3062f68148b0b8c7ec2c940330887ae546f9b7eOUT 0x09986b4e255b3c548041a30a2ee312fe176731c20 ETH0.000104370043 ETH
0x74bdfd55a8d07957e33529b628d7ba242250a0aad461a4cba30c7b66f0b27922Approve195068182022-08-06 3:42:292 days 12 hrs ago0xd3062f68148b0b8c7ec2c940330887ae546f9b7eOUTTreasure DAO: Magic Token0 ETH0.000076060446 ETH
0x5e55709eee74f876a1269b8b997b388502288c2743b504b664a609fd1412669bApprove195068122022-08-06 3:42:292 days 12 hrs ago0xd3062f68148b0b8c7ec2c940330887ae546f9b7eOUTTreasure DAO: Magic Token0 ETH0.000083168003 ETH
0x17c48462ad8e0316716c96fdc6fab66331684215287ce902361f8e0e6e8265ceSwap Exact ETH F...195067792022-08-06 3:42:292 days 12 hrs ago0xd3062f68148b0b8c7ec2c940330887ae546f9b7eOUT SushiSwap: Router0.0005 ETH0.000107674168 ETH
0x5b1d20a675c8783141fb76cf4023cfa84649c727dbd059c2e158ac25559fcc6eSet Approval For...195067172022-08-06 3:40:032 days 12 hrs ago0xd3062f68148b0b8c7ec2c940330887ae546f9b7eOUT 0xb3963985de1b174462dde56418ce7d419caa4c120 ETH0.000076811377 ETH
0xd43d88cd81b19ada01b86ffd5b640fa3e245d134617160a5a2aeaab8d2f3a0ed0xba847759195066982022-08-06 3:40:032 days 12 hrs ago0xd3062f68148b0b8c7ec2c940330887ae546f9b7eOUT tofuNFT: Market0.0001 ETH0.000368417167 ETH
0x23c69a18fbea668e4e692f84b91b7746e1708e9b6c59ecfd7402b6c1732821f3Create Retryable...195066642022-08-06 3:39:422 days 12 hrs ago0xd3062f68148b0b8c7ec2c940330887ae546f9b7eOUT Arbitrum: ArbRetryableTx0.098 ETH0.00000001474 ETH
0x9e38e64059c3d0a797368fc1591acfbe2adae43c2a42f560ae7a66987a52ecaaTransfer195058112022-08-06 3:21:362 days 13 hrs ago0xd3062f68148b0b8c7ec2c940330887ae546f9b7eOUT0x80c67432656d59144ceff962e8faf8926599bcf80.092472000000009 ETH0.000062408167 ETH
0x118942355483cecf2b6b4c3de0ddd17fc55481ec01243ec80ba24b68f8e54ab50x7c025200195057392022-08-06 3:21:362 days 13 hrs ago0xd3062f68148b0b8c7ec2c940330887ae546f9b7eOUT 0x1111111254fb6c44bac0bed2854e76f90643097d0 ETH0.000457673377 ETH
0x09612c396fa0da61f1e432928f048361169115213effe29164cfaf2d7705ee03Uniswap V3Swap169801382022-07-04 13:05:0035 days 3 hrs ago0xd3062f68148b0b8c7ec2c940330887ae546f9b7eOUT 0x1111111254fb6c44bac0bed2854e76f90643097d0.125 ETH0.000105291148 ETH
0x2b039524f5c00872f7f3c16314c93396e51bbae6e0106ed22cba6d4a901638a2Create Retryable...165733422022-06-30 7:39:4439 days 8 hrs ago0xd3062f68148b0b8c7ec2c940330887ae546f9b7eOUT Arbitrum: ArbRetryableTx0.1 ETH0.000000062324 ETH
0xa80d88d8f8a1c8af60dad59eb307b98ee38a63a493820d2311b7b4da659490d90x2e4dbe8f163102052022-06-28 23:48:1240 days 16 hrs ago0xd3062f68148b0b8c7ec2c940330887ae546f9b7eOUT 0x9e6ef7f75ad88d4edb4c9925c94b769c5b0d62810 ETH0.000764076107 ETH
0x74d7f8b40ef80098a95ed373b774120d76920de573cb191c80e14168972ee9ba0x2e4dbe8f163101592022-06-28 23:48:1240 days 16 hrs ago0xd3062f68148b0b8c7ec2c940330887ae546f9b7eOUT 0x9e6ef7f75ad88d4edb4c9925c94b769c5b0d62810 ETH0.000764867595 ETH
0xc397e1274a0d494a6388693e165f278473f532ac87cb5300eab90f408ec6ef89Transfer148116932022-06-16 15:18:3253 days 1 hr ago0xd3062f68148b0b8c7ec2c940330887ae546f9b7eOUT0x80c67432656d59144ceff962e8faf8926599bcf80.429765000000009 ETH0.000231781092 ETH
0x02b6d31638c469e6e273404b86bbe6ca679320315e58663d9bb5679e74520dad0xba847759148116522022-06-16 15:17:0653 days 1 hr ago0xd3062f68148b0b8c7ec2c940330887ae546f9b7eOUT tofuNFT: Market0.0144 ETH0.00139805636 ETH
0x4784dafca7ccebe79a68bec195462f6a64bd639865c9a03c892c8f4556acaea8Borrow148115562022-06-16 15:16:4253 days 1 hr ago0xd3062f68148b0b8c7ec2c940330887ae546f9b7eOUTAave: Pool V30 ETH0.000315875468 ETH
0xa3d8fc5c522d66c3dfa98a0fa835e2cdb380e7ab37a9233fd2917a06fad4f05eDeposit ETH148115112022-06-16 15:16:4253 days 1 hr ago0xd3062f68148b0b8c7ec2c940330887ae546f9b7eOUTAave: WETH Gateway V30.001 ETH0.000349615299 ETH
0xfca3197135a2896282d95b2205c26de7fc72e1ae5923e93738dc028fca9963e6Uniswap V3Swap148114372022-06-16 15:15:3553 days 1 hr ago0xd3062f68148b0b8c7ec2c940330887ae546f9b7eOUT 0x1111111254fb6c44bac0bed2854e76f90643097d0 ETH0.000307459283 ETH
0xdff7913d0f8dcac757c5a4315e577e35c5d783f486eb58d46d1a49e64e83e9b3Approve148114062022-06-16 15:15:3553 days 1 hr ago0xd3062f68148b0b8c7ec2c940330887ae546f9b7eOUT 0xfd086bc7cd5c481dcc9c85ebe478a1c0b69fcbb90 ETH0.000309809416 ETH
0x6e70f1344192eecb9c0f656b9e338a6841a9c8cc43e1e09c63cd653d27db36e80x7c025200148113752022-06-16 15:15:2453 days 1 hr ago0xd3062f68148b0b8c7ec2c940330887ae546f9b7eOUT 0x1111111254fb6c44bac0bed2854e76f90643097d0.4 ETH0.000819039484 ETH
0x0575c76ae88860a74d7d46da21f4485d39376358338f9dd427d585747df07423Create Retryable...148106902022-06-16 15:08:3853 days 1 hr ago0xd3062f68148b0b8c7ec2c940330887ae546f9b7eOUT Arbitrum: ArbRetryableTx0.45 ETH0.000000076608 ETH
[ Download CSV Export 
Latest 3 internal transactions
Parent Txn Hash Block From To Value
0x118942355483cecf2b6b4c3de0ddd17fc55481ec01243ec80ba24b68f8e54ab5195057392022-08-06 3:21:362 days 13 hrs ago 0x1111111254fb6c44bac0bed2854e76f90643097d0xd3062f68148b0b8c7ec2c940330887ae546f9b7e0.079632842786804875 ETH
0xddcb777c7185bb432353bc499a5235c6f44eeff8dc2684811495290df767ee59155153132022-06-23 13:02:0646 days 3 hrs ago 0x33ceb27b39d2bb7d2e61f7564d3df293440204170xd3062f68148b0b8c7ec2c940330887ae546f9b7e0.039922950023822393 ETH
0xfca3197135a2896282d95b2205c26de7fc72e1ae5923e93738dc028fca9963e6148114372022-06-16 15:15:3553 days 1 hr ago 0x1111111254fb6c44bac0bed2854e76f90643097d0xd3062f68148b0b8c7ec2c940330887ae546f9b7e0.399993797647464083 ETH
[ Download CSV Export 
Loading

Contract Name:
0 ETH

Compiler Version
0

Optimization Enabled:
0 ETH

Other Settings:
-NA-
Block Transaction Gas Used Reward
Age Block Fee Address BC Fee Address Voting Power Jailed Incoming
Block Uncle Number Difficulty Gas Used Reward
Loading
Make sure to use the "Vote Down" button for any spammy posts, and the "Vote Up" for interesting conversations.